| time (UTC) | temp C | wind direction | speed KPH | gust KPH | rain 1hr cm | rain 24hr cm | rain mn cm | humidity % | barometer mb |
| 20260504191838 | 25 | 79 | 3.2 | 4.8 | 0.00 | 0.00 | 0.00 | 31 | 1010.5 |
| 20260504191337 | 25 | 95 | 1.6 | 3.2 | 0.00 | 0.00 | 0.00 | 31 | 1010.5 |
| 20260504190838 | 25 | 69 | 1.6 | 3.2 | 0.00 | 0.00 | 0.00 | 31 | 1010.8 |
| 20260504190338 | 25 | 129 | 1.6 | 1.6 | 0.00 | 0.00 | 0.00 | 34 | 1010.8 |
| 20260504185838 | 24 | 75 | 3.2 | 3.2 | 0.00 | 0.00 | 0.00 | 32 | 1010.9 |
| 20260504185337 | 25 | 97 | 1.6 | 1.6 | 0.00 | 0.00 | 0.00 | 32 | 1011.1 |
| 20260504184838 | 25 | 67 | 1.6 | 1.6 | 0.00 | 0.00 | 0.00 | 33 | 1010.9 |
| 20260504184337 | 25 | 149 | 1.6 | 4.8 | 0.00 | 0.00 | 0.00 | 33 | 1011.3 |
| 20260504183838 | 25 | 61 | 1.6 | 3.2 | 0.00 | 0.00 | 0.00 | 34 | 1011.0 |
| 20260504183338 | 25 | 262 | 6.4 | 9.7 | 0.00 | 0.00 | 0.00 | 31 | 1011.2 |
| 20260504182837 | 25 | 95 | 1.6 | 1.6 | 0.00 | 0.00 | 0.00 | 32 | 1011.2 |
| 20260504182338 | 24 | 114 | 1.6 | 1.6 | 0.00 | 0.00 | 0.00 | 31 | 1011.3 |
| 20260504181837 | 24 | 24 | 1.6 | 3.2 | 0.00 | 0.00 | 0.00 | 33 | 1011.5 |
| 20260504181337 | 23 | 142 | 4.8 | 6.4 | 0.00 | 0.00 | 0.00 | 32 | 1011.8 |
| 20260504180838 | 24 | 140 | 4.8 | 6.4 | 0.00 | 0.00 | 0.00 | 33 | 1011.4 |
| 20260504180337 | 24 | 111 | 1.6 | 1.6 | 0.00 | 0.00 | 0.00 | 34 | 1011.8 |
| 20260504175837 | 23 | 68 | 3.2 | 3.2 | 0.00 | 0.00 | 0.00 | 34 | 1012.1 |
| 20260504175338 | 24 | 102 | 1.6 | 1.6 | 0.00 | 0.00 | 0.00 | 32 | 1011.7 |
| 20260504174838 | 24 | 69 | 1.6 | 3.2 | 0.00 | 0.00 | 0.00 | 32 | 1011.9 |
| 20260504174338 | 23 | 98 | 0.0 | 3.2 | 0.00 | 0.00 | 0.00 | 34 | 1011.9 |
| 20260504173837 | 23 | 171 | 3.2 | 4.8 | 0.00 | 0.00 | 0.00 | 34 | 1011.9 |
| 20260504173338 | 23 | 84 | 4.8 | 4.8 | 0.00 | 0.00 | 0.00 | 34 | 1012.3 |
| 20260504172837 | 23 | 241 | 3.2 | 3.2 | 0.00 | 0.00 | 0.00 | 33 | 1012.3 |
| 20260504172337 | 23 | 134 | 1.6 | 1.6 | 0.00 | 0.00 | 0.00 | 34 | 1012.1 |
| 20260504171838 | 23 | 125 | 3.2 | 3.2 | 0.00 | 0.00 | 0.00 | 34 | 1012.1 |
| 20260504171337 | 22 | 133 | 0.0 | 0.0 | 0.00 | 0.00 | 0.00 | 36 | 1012.4 |
| 20260504170838 | 22 | 102 | 3.2 | 6.4 | 0.00 | 0.00 | 0.00 | 36 | 1012.5 |
| 20260504170338 | 22 | 107 | 1.6 | 1.6 | 0.00 | 0.00 | 0.00 | 35 | 1012.6 |
| 20260504160338 | 21 | 102 | 0.0 | 1.6 | 0.00 | 0.00 | 0.00 | 35 | 1013.0 |
| 20260504150838 | 20 | 73 | 3.2 | 3.2 | 0.00 | 0.00 | 0.00 | 36 | 1014.0 |
| 20260504150338 | 20 | 112 | 1.6 | 1.6 | 0.00 | 0.00 | 0.00 | 38 | 1013.6 |
| 20260504140838 | 18 | 170 | 1.6 | 1.6 | 0.00 | 0.00 | 0.00 | 41 | 1013.7 |
| 20260504140337 | 18 | 338 | 0.0 | 1.6 | 0.00 | 0.00 | 0.00 | 40 | 1013.8 |
| 20260504130337 | 14 | 91 | 3.2 | 4.8 | 0.00 | 0.00 | 0.00 | 51 | 1014.4 |
| 20260504110337 | 9 | 116 | 0.0 | 0.0 | 0.00 | 0.00 | 0.00 | 65 | 1014.7 |
| 20260504100337 | 8 | 116 | 0.0 | 0.0 | 0.00 | 0.00 | 0.00 | 63 | 1014.5 |
| 20260504081837 | 10 | 109 | 0.0 | 0.0 | 0.00 | 0.00 | 0.00 | 56 | 1014.9 |
| 20260504081337 | 10 | 100 | 1.6 | 1.6 | 0.00 | 0.00 | 0.00 | 55 | 1015.1 |
| 20260504080837 | 10 | 89 | 1.6 | 3.2 | 0.00 | 0.00 | 0.00 | 55 | 1014.9 |
| 20260504080338 | 10 | 132 | 1.6 | 1.6 | 0.00 | 0.00 | 0.00 | 55 | 1014.9 |
| 20260504070337 | 11 | 122 | 0.0 | 0.0 | 0.00 | 0.00 | 0.00 | 51 | 1014.9 |
| 20260504050337 | 8 | 115 | 0.0 | 0.0 | 0.00 | 0.00 | 0.00 | 57 | 1015.2 |
| 20260504045837 | 8 | 116 | 0.0 | 0.0 | 0.00 | 0.00 | 0.00 | 57 | 1015.4 |
| 20260504045338 | 8 | 116 | 0.0 | 0.0 | 0.00 | 0.00 | 0.00 | 57 | 1015.4 |
| 20260504044837 | 8 | 116 | 0.0 | 0.0 | 0.00 | 0.00 | 0.00 | 56 | 1015.5 |
| 20260504044337 | 8 | 116 | 0.0 | 0.0 | 0.00 | 0.00 | 0.00 | 56 | 1015.6 |
| 20260504043837 | 8 | 111 | 0.0 | 0.0 | 0.00 | 0.00 | 0.00 | 56 | 1015.5 |
| 20260504043337 | 8 | 116 | 0.0 | 0.0 | 0.00 | 0.00 | 0.00 | 55 | 1015.4 |
| 20260504042837 | 8 | 116 | 0.0 | 0.0 | 0.00 | 0.00 | 0.00 | 55 | 1015.4 |
| 20260504042338 | 8 | 113 | 0.0 | 0.0 | 0.00 | 0.00 | 0.00 | 54 | 1015.2 |
| 20260504041837 | 8 | 109 | 0.0 | 0.0 | 0.00 | 0.00 | 0.00 | 54 | 1015.4 |
| 20260504041337 | 8 | 114 | 0.0 | 0.0 | 0.00 | 0.00 | 0.00 | 54 | 1015.2 |
| 20260504040837 | 9 | 114 | 0.0 | 0.0 | 0.00 | 0.00 | 0.00 | 53 | 1015.2 |
| 20260504040338 | 9 | 117 | 0.0 | 0.0 | 0.00 | 0.00 | 0.00 | 53 | 1015.1 |
| 20260504035838 | 9 | 115 | 0.0 | 0.0 | 0.00 | 0.00 | 0.00 | 52 | 1015.3 |
| 20260504035337 | 9 | 116 | 0.0 | 0.0 | 0.00 | 0.00 | 0.00 | 51 | 1015.2 |
| 20260504034837 | 9 | 118 | 0.0 | 0.0 | 0.00 | 0.00 | 0.00 | 51 | 1015.2 |
| 20260504034338 | 9 | 117 | 0.0 | 0.0 | 0.00 | 0.00 | 0.00 | 52 | 1015.1 |
| 20260504033837 | 9 | 116 | 0.0 | 0.0 | 0.00 | 0.00 | 0.00 | 52 | 1015.5 |
| 20260504033338 | 9 | 116 | 0.0 | 0.0 | 0.00 | 0.00 | 0.00 | 52 | 1015.4 |
| 20260504032837 | 8 | 115 | 0.0 | 0.0 | 0.00 | 0.00 | 0.00 | 52 | 1015.3 |
| 20260504032338 | 8 | 114 | 0.0 | 0.0 | 0.00 | 0.00 | 0.00 | 54 | 1015.2 |
| 20260504031837 | 8 | 116 | 0.0 | 0.0 | 0.00 | 0.00 | 0.00 | 53 | 1015.1 |
| 20260504031337 | 9 | 116 | 0.0 | 0.0 | 0.00 | 0.00 | 0.00 | 52 | 1015.4 |
| 20260504030837 | 9 | 119 | 0.0 | 0.0 | 0.00 | 0.00 | 0.00 | 52 | 1015.1 |
| 20260504030337 | 9 | 110 | 0.0 | 0.0 | 0.00 | 0.00 | 0.00 | 52 | 1015.3 |
| 20260504025837 | 9 | 116 | 0.0 | 0.0 | 0.00 | 0.00 | 0.00 | 51 | 1015.4 |
| 20260504025338 | 9 | 116 | 0.0 | 0.0 | 0.00 | 0.00 | 0.00 | 51 | 1015.1 |
| 20260504024838 | 9 | 116 | 0.0 | 0.0 | 0.00 | 0.00 | 0.00 | 51 | 1015.0 |
| 20260504024338 | 10 | 118 | 0.0 | 0.0 | 0.00 | 0.00 | 0.00 | 52 | 1014.9 |
| 20260504023838 | 10 | 113 | 0.0 | 0.0 | 0.00 | 0.00 | 0.00 | 52 | 1015.2 |
| 20260504023338 | 10 | 116 | 0.0 | 0.0 | 0.00 | 0.00 | 0.00 | 52 | 1015.0 |
| 20260504022837 | 10 | 117 | 0.0 | 0.0 | 0.00 | 0.00 | 0.00 | 54 | 1014.9 |
| 20260504022338 | 10 | 121 | 0.0 | 0.0 | 0.00 | 0.00 | 0.00 | 53 | 1015.0 |
| 20260504021837 | 10 | 117 | 0.0 | 0.0 | 0.00 | 0.00 | 0.00 | 53 | 1014.8 |
| 20260504021337 | 10 | 120 | 0.0 | 0.0 | 0.00 | 0.00 | 0.00 | 53 | 1014.9 |
| 20260504020837 | 10 | 118 | 0.0 | 0.0 | 0.00 | 0.00 | 0.00 | 54 | 1014.9 |
| 20260504020337 | 10 | 118 | 0.0 | 0.0 | 0.00 | 0.00 | 0.00 | 54 | 1015.0 |
| 20260504015837 | 10 | 118 | 0.0 | 0.0 | 0.00 | 0.00 | 0.00 | 54 | 1014.9 |
| 20260504015337 | 10 | 122 | 0.0 | 0.0 | 0.00 | 0.00 | 0.00 | 53 | 1014.5 |
| 20260504014837 | 10 | 124 | 0.0 | 0.0 | 0.00 | 0.00 | 0.00 | 53 | 1014.6 |
| 20260504014337 | 10 | 119 | 0.0 | 0.0 | 0.00 | 0.00 | 0.00 | 51 | 1014.7 |
| 20260504013837 | 10 | 122 | 0.0 | 0.0 | 0.00 | 0.00 | 0.00 | 51 | 1014.4 |
| 20260504013338 | 10 | 115 | 0.0 | 0.0 | 0.00 | 0.00 | 0.00 | 51 | 1014.5 |
| 20260504012837 | 10 | 116 | 0.0 | 0.0 | 0.00 | 0.00 | 0.00 | 50 | 1014.3 |
| 20260504012337 | 10 | 116 | 0.0 | 0.0 | 0.00 | 0.00 | 0.00 | 50 | 1014.3 |
| 20260504011838 | 11 | 116 | 0.0 | 0.0 | 0.00 | 0.00 | 0.00 | 49 | 1014.4 |
| 20260504011338 | 10 | 119 | 0.0 | 0.0 | 0.00 | 0.00 | 0.00 | 48 | 1014.4 |
| 20260504010838 | 11 | 115 | 0.0 | 0.0 | 0.00 | 0.00 | 0.00 | 48 | 1014.5 |
| 20260504010338 | 11 | 116 | 0.0 | 0.0 | 0.00 | 0.00 | 0.00 | 47 | 1014.6 |
| 20260504005837 | 11 | 114 | 0.0 | 0.0 | 0.00 | 0.00 | 0.00 | 45 | 1014.5 |
| 20260504005338 | 11 | 118 | 0.0 | 0.0 | 0.00 | 0.00 | 0.00 | 45 | 1014.5 |
| 20260504004837 | 11 | 116 | 0.0 | 0.0 | 0.00 | 0.00 | 0.00 | 43 | 1014.3 |
| 20260504004338 | 12 | 117 | 0.0 | 0.0 | 0.00 | 0.00 | 0.00 | 42 | 1014.1 |
| 20260504003837 | 12 | 119 | 0.0 | 0.0 | 0.00 | 0.00 | 0.00 | 41 | 1014.1 |
| 20260504003338 | 12 | 119 | 0.0 | 0.0 | 0.00 | 0.00 | 0.00 | 42 | 1014.5 |
| 20260504002838 | 12 | 118 | 0.0 | 0.0 | 0.00 | 0.00 | 0.00 | 41 | 1014.2 |
| 20260504002337 | 13 | 117 | 0.0 | 0.0 | 0.00 | 0.00 | 0.00 | 40 | 1014.3 |
| 20260504001838 | 13 | 115 | 0.0 | 0.0 | 0.00 | 0.00 | 0.00 | 39 | 1014.1 |
| 20260504001338 | 13 | 118 | 0.0 | 0.0 | 0.00 | 0.00 | 0.00 | 37 | 1014.1 |
| 20260504000837 | 14 | 106 | 0.0 | 0.0 | 0.00 | 0.00 | 0.00 | 36 | 1014.0 |
| 20260504000337 | 14 | 112 | 0.0 | 0.0 | 0.00 | 0.00 | 0.00 | 35 | 1014.1 |
| 20260503235837 | 15 | 120 | 0.0 | 0.0 | 0.00 | 0.00 | 0.00 | 33 | 1014.0 |
| 20260503235338 | 15 | 120 | 0.0 | 0.0 | 0.00 | 0.00 | 0.00 | 33 | 1014.0 |
| 20260503234838 | 15 | 114 | 0.0 | 0.0 | 0.00 | 0.00 | 0.00 | 33 | 1014.0 |
| 20260503234337 | 15 | 99 | 0.0 | 1.6 | 0.00 | 0.00 | 0.00 | 32 | 1014.0 |
| 20260503233837 | 15 | 115 | 0.0 | 1.6 | 0.00 | 0.00 | 0.00 | 32 | 1013.9 |
| 20260503233337 | 16 | 80 | 1.6 | 1.6 | 0.00 | 0.00 | 0.00 | 32 | 1014.0 |
| 20260503232837 | 16 | 117 | 1.6 | 1.6 | 0.00 | 0.00 | 0.00 | 32 | 1013.9 |
| 20260503232337 | 16 | 120 | 1.6 | 1.6 | 0.00 | 0.00 | 0.00 | 31 | 1013.8 |
| 20260503231837 | 16 | 113 | 1.6 | 3.2 | 0.00 | 0.00 | 0.00 | 30 | 1013.6 |
| 20260503231337 | 16 | 17 | 1.6 | 3.2 | 0.00 | 0.00 | 0.00 | 30 | 1013.9 |
| 20260503230838 | 16 | 73 | 1.6 | 1.6 | 0.00 | 0.00 | 0.00 | 30 | 1013.7 |
| 20260503230337 | 16 | 354 | 3.2 | 4.8 | 0.00 | 0.00 | 0.00 | 29 | 1013.6 |
| 20260503225838 | 16 | 191 | 0.0 | 1.6 | 0.00 | 0.00 | 0.00 | 29 | 1013.8 |
| 20260503225338 | 16 | 139 | 3.2 | 3.2 | 0.00 | 0.00 | 0.00 | 28 | 1013.7 |
| 20260503224838 | 17 | 324 | 1.6 | 3.2 | 0.00 | 0.00 | 0.00 | 28 | 1013.8 |
| 20260503224338 | 17 | 188 | 1.6 | 3.2 | 0.00 | 0.00 | 0.00 | 28 | 1013.7 |
| 20260503223837 | 17 | 126 | 4.8 | 6.4 | 0.00 | 0.00 | 0.00 | 28 | 1013.8 |
| 20260503223337 | 17 | 120 | 3.2 | 6.4 | 0.00 | 0.00 | 0.00 | 28 | 1013.9 |
| 20260503222838 | 17 | 79 | 4.8 | 6.4 | 0.00 | 0.00 | 0.00 | 28 | 1013.8 |
| 20260503222338 | 17 | 195 | 1.6 | 4.8 | 0.00 | 0.00 | 0.00 | 28 | 1013.6 |
| 20260503221838 | 17 | 71 | 3.2 | 4.8 | 0.00 | 0.00 | 0.00 | 28 | 1013.8 |
| 20260503221337 | 17 | 245 | 3.2 | 4.8 | 0.00 | 0.00 | 0.00 | 27 | 1013.8 |
| 20260503220838 | 17 | 238 | 0.0 | 1.6 | 0.00 | 0.00 | 0.00 | 27 | 1013.7 |
| 20260503220338 | 17 | 172 | 1.6 | 3.2 | 0.00 | 0.00 | 0.00 | 28 | 1014.0 |
| 20260503215837 | 17 | 41 | 1.6 | 1.6 | 0.00 | 0.00 | 0.00 | 28 | 1013.9 |
| 20260503215337 | 17 | 173 | 1.6 | 1.6 | 0.00 | 0.00 | 0.00 | 29 | 1013.9 |
| 20260503214838 | 17 | 55 | 1.6 | 1.6 | 0.00 | 0.00 | 0.00 | 28 | 1014.1 |
| 20260503214338 | 17 | 46 | 3.2 | 4.8 | 0.00 | 0.00 | 0.00 | 27 | 1014.1 |
| 20260503213837 | 17 | 183 | 6.4 | 9.7 | 0.00 | 0.00 | 0.00 | 27 | 1014.2 |
| 20260503213338 | 17 | 67 | 4.8 | 6.4 | 0.00 | 0.00 | 0.00 | 29 | 1013.9 |
| 20260503212838 | 18 | 273 | 3.2 | 3.2 | 0.00 | 0.00 | 0.00 | 26 | 1013.9 |
| 20260503212337 | 17 | 326 | 1.6 | 3.2 | 0.00 | 0.00 | 0.00 | 27 | 1014.0 |
| 20260503211837 | 17 | 40 | 3.2 | 6.4 | 0.00 | 0.00 | 0.00 | 28 | 1013.9 |
| 20260503211337 | 17 | 149 | 0.0 | 1.6 | 0.00 | 0.00 | 0.00 | 28 | 1014.2 |
| 20260503210838 | 17 | 90 | 3.2 | 4.8 | 0.00 | 0.00 | 0.00 | 29 | 1014.1 |
| 20260503210337 | 17 | 2 | 8.0 | 11.3 | 0.00 | 0.00 | 0.00 | 28 | 1014.1 |
| 20260503205837 | 17 | 154 | 3.2 | 3.2 | 0.00 | 0.00 | 0.00 | 29 | 1014.2 |
| 20260503205338 | 16 | 108 | 4.8 | 6.4 | 0.00 | 0.00 | 0.00 | 28 | 1014.2 |
| 20260503204837 | 16 | 231 | 1.6 | 3.2 | 0.00 | 0.00 | 0.00 | 27 | 1014.1 |
| 20260503204338 | 17 | 315 | 6.4 | 9.7 | 0.00 | 0.00 | 0.00 | 28 | 1014.3 |
| 20260503203838 | 16 | 355 | 1.6 | 1.6 | 0.00 | 0.00 | 0.00 | 28 | 1014.1 |
| 20260503203337 | 16 | 30 | 6.4 | 11.3 | 0.00 | 0.00 | 0.00 | 29 | 1013.9 |
| 20260503202838 | 17 | 352 | 6.4 | 9.7 | 0.00 | 0.00 | 0.00 | 28 | 1014.0 |
| 20260503202338 | 17 | 87 | 1.6 | 1.6 | 0.00 | 0.00 | 0.00 | 29 | 1014.3 |
| 20260503201837 | 16 | 27 | 6.4 | 9.7 | 0.00 | 0.00 | 0.00 | 29 | 1014.4 |
| 20260503201338 | 16 | 348 | 9.7 | 14.5 | 0.00 | 0.00 | 0.00 | 30 | 1014.3 |
| 20260503200837 | 17 | 18 | 9.7 | 12.9 | 0.00 | 0.00 | 0.00 | 29 | 1014.3 |
| 20260503200337 | 16 | 136 | 1.6 | 1.6 | 0.00 | 0.00 | 0.00 | 30 | 1014.6 |
| 20260503195837 | 17 | 337 | 4.8 | 6.4 | 0.00 | 0.00 | 0.00 | 29 | 1014.6 |
| 20260503195337 | 17 | 349 | 3.2 | 6.4 | 0.00 | 0.00 | 0.00 | 31 | 1015.0 |
| 20260503194837 | 16 | 96 | 1.6 | 1.6 | 0.00 | 0.00 | 0.00 | 31 | 1015.0 |
| 20260503194338 | 16 | 347 | 9.7 | 12.9 | 0.00 | 0.00 | 0.00 | 30 | 1014.9 |
| 20260503193838 | 16 | 163 | 8.0 | 12.9 | 0.00 | 0.00 | 0.00 | 31 | 1015.0 |
| 20260503193338 | 16 | 338 | 1.6 | 3.2 | 0.00 | 0.00 | 0.00 | 31 | 1015.0 |
| 20260503192838 | 16 | 236 | 1.6 | 3.2 | 0.00 | 0.00 | 0.00 | 31 | 1015.3 |
| 20260503192337 | 16 | 357 | 6.4 | 9.7 | 0.00 | 0.00 | 0.00 | 32 | 1015.4 |